FW6170 Valrico FL US current weather conditions

sailwx.info

Wind from 031 at 1 knots gusting 6

Air temperature 33.3° C
Dewpoint 25.0° C

Last reported at 2020-Aug-09 20:05 UTC.
Time now 2020-Aug-09 20:31 UTC

Location: N 27°52' W 082°15'.
View on Google Maps.

See reports from other nearby stations

  
Tides and Currents Weather Stations Pressure Air Temp Water Temp Dewpoint Dewpoint Depression Visibility Wind Speed Wind Dir Waves Ship Positions
date/time (UTC)wind fromknots sea level pressurealtimeterstation pressurevisibilityair tempwater tempwave heightnotes
2020-Aug-09 20:05 031 1 gusting 6 33.3
2020-Aug-09 20:01 257 1 gusting 6 33.9
2020-Aug-09 19:55 121 33.9
2020-Aug-09 19:50 34.4
2020-Aug-09 19:46 34.4
2020-Aug-09 19:40 35.0
2020-Aug-09 19:35 129 35.0
2020-Aug-09 19:31 103 0 gusting 3 35.6
2020-Aug-09 19:25 35.6
2020-Aug-09 19:20 176 0 gusting 4 35.6
2020-Aug-09 19:16 051 0 gusting 3 35.0
2020-Aug-09 19:10 083 0 gusting 2 35.6
2020-Aug-09 19:05 053 0 gusting 6 35.6
2020-Aug-09 19:00 059 1 gusting 6 35.6
2020-Aug-09 18:55 098 35.0
2020-Aug-09 18:51 083 0 gusting 2 35.0
2020-Aug-09 18:46 119 0 gusting 4 35.0
2020-Aug-09 18:40 041 1 gusting 4 35.0
2020-Aug-09 18:36 044 0 gusting 3 35.6
2020-Aug-09 18:31 105 0 gusting 4 35.0
2020-Aug-09 18:25 144 1 gusting 4 35.0
2020-Aug-09 18:20 130 1 gusting 3 35.0
2020-Aug-09 18:17 136 0 gusting 4 34.4
2020-Aug-09 18:11 064 0 gusting 4 35.0
2020-Aug-09 18:05 041 1 gusting 4 34.4
2020-Aug-09 18:01 121 0 gusting 3 34.4
2020-Aug-09 17:55 120 0 gusting 3 33.9
2020-Aug-09 17:50 101 34.4
2020-Aug-09 17:46 164 0 gusting 5 34.4
2020-Aug-09 17:40 167 0 gusting 5 34.4
2020-Aug-09 17:35 155 0 gusting 3 34.4
2020-Aug-09 17:31 138 0 gusting 4 33.9
2020-Aug-09 17:25 33.9
2020-Aug-09 17:20 034 0 gusting 3 33.3
2020-Aug-09 17:16 015 1 gusting 3 33.3
2020-Aug-09 17:10 049 0 gusting 3 33.3
2020-Aug-09 17:06 043 0 gusting 3 33.3
2020-Aug-09 17:01 33.3
2020-Aug-09 16:55 032 1 gusting 3 33.3
2020-Aug-09 16:50 032 0 gusting 4 33.3
2020-Aug-09 16:45 162 0 gusting 4 32.8
2020-Aug-09 16:40 147 0 gusting 2 32.8
2020-Aug-09 16:35 040 32.8
2020-Aug-09 16:31 030 0 gusting 2 32.2
2020-Aug-09 16:25 044 0 gusting 2 32.2
2020-Aug-09 16:20 025 0 gusting 2 31.7
2020-Aug-09 16:16 028 0 gusting 2 31.7
2020-Aug-09 16:10 028 0 gusting 2 31.7
2020-Aug-09 16:05 31.7
2020-Aug-09 16:01 31.1
2020-Aug-09 15:55 263 0 gusting 3 31.1
2020-Aug-09 15:50 269 0 gusting 3 31.1
2020-Aug-09 15:47 286 0 gusting 2 31.1
2020-Aug-09 15:40 31.1
2020-Aug-09 15:35 271 0 gusting 2 31.1
2020-Aug-09 15:31 289 0 gusting 2 30.6
2020-Aug-09 15:25 150 30.6
2020-Aug-09 15:20 30.6
2020-Aug-09 15:16 155 30.0
2020-Aug-09 15:10 016 30.0
2020-Aug-09 15:06 017 0 gusting 3 30.0
2020-Aug-09 15:01 148 30.0
2020-Aug-09 14:55 148 0 gusting 2 30.0
2020-Aug-09 14:50 148 29.4
2020-Aug-09 14:45 148 0 gusting 1 29.4
2020-Aug-09 14:40 148 29.4
2020-Aug-09 14:35 148 0 gusting 1 28.9
2020-Aug-09 14:31 148 0 gusting 1 28.9
2020-Aug-09 14:25 28.9
2020-Aug-09 14:20 147 28.3
2020-Aug-09 14:16 105 0 gusting 1 28.3
2020-Aug-09 14:10 105 28.3
2020-Aug-09 14:05 105 28.3
2020-Aug-09 14:01 27.8
2020-Aug-09 13:55 066 27.8
2020-Aug-09 13:51 27.8
2020-Aug-09 13:45 066 27.8
2020-Aug-09 13:40 27.8
2020-Aug-09 13:35 27.8
2020-Aug-09 13:30 27.2
2020-Aug-09 13:25 27.2
2020-Aug-09 13:20 26.7
2020-Aug-09 13:16 339 26.7
2020-Aug-09 13:10 26.7
2020-Aug-09 13:05 26.7
2020-Aug-09 13:02 26.1
2020-Aug-09 12:55 26.1
2020-Aug-09 12:50 26.1
2020-Aug-09 12:46 26.1
2020-Aug-09 12:40 25.6
2020-Aug-09 12:35 25.6
2020-Aug-09 12:31 25.6
2020-Aug-09 12:25 25.0
2020-Aug-09 12:20 25.0
2020-Aug-09 12:15 339 25.0
2020-Aug-09 12:10 299 25.0
2020-Aug-09 12:05 24.4
2020-Aug-09 12:01 24.4
2020-Aug-09 11:55 24.4
2020-Aug-09 11:50 299 24.4
2020-Aug-09 11:47 23.9
2020-Aug-09 11:40 23.9
2020-Aug-09 11:35 23.9
2020-Aug-09 11:31 23.9
2020-Aug-09 11:25 23.9
2020-Aug-09 11:20 23.9
2020-Aug-09 11:17 23.9
2020-Aug-09 11:11 23.9
2020-Aug-09 11:05 23.9
2020-Aug-09 11:02 23.9
2020-Aug-09 10:55 23.9
2020-Aug-09 10:50 23.9
2020-Aug-09 10:46 23.9
2020-Aug-09 10:40 23.9
2020-Aug-09 10:35 23.9
2020-Aug-09 10:30 23.9
2020-Aug-09 10:25 23.9
2020-Aug-09 10:20 23.9
2020-Aug-09 10:16 23.9
2020-Aug-09 10:10 23.9
2020-Aug-09 10:05 23.9
2020-Aug-09 10:01 23.9
2020-Aug-09 09:55 23.9
2020-Aug-09 09:50 23.9
2020-Aug-09 09:46 23.9
2020-Aug-09 09:41 23.9
2020-Aug-09 09:35 23.9
2020-Aug-09 09:31 23.9
2020-Aug-09 09:25 299 24.4
2020-Aug-09 09:20 24.4
2020-Aug-09 09:16 24.4
2020-Aug-09 09:11 24.4
2020-Aug-09 09:05 24.4
2020-Aug-09 09:01 24.4
2020-Aug-09 08:56 23.9
2020-Aug-09 08:50 23.9
2020-Aug-09 08:46 23.9
2020-Aug-09 08:40 24.4
2020-Aug-09 08:35 24.4
2020-Aug-09 08:31 24.4
2020-Aug-09 08:25 299 24.4
2020-Aug-09 08:20 299 24.4
2020-Aug-09 08:17 24.4
2020-Aug-09 08:10 24.4
2020-Aug-09 08:05 24.4
2020-Aug-09 08:02 24.4
2020-Aug-09 07:56 299 0 gusting 2 23.9
2020-Aug-09 07:50 277 23.9
2020-Aug-09 07:46 277 23.9
2020-Aug-09 07:40 277 23.9
2020-Aug-09 07:35 24.4
2020-Aug-09 07:31 23.9
2020-Aug-09 07:25 277 23.9
2020-Aug-09 07:20 24.4
2020-Aug-09 07:16 24.4
2020-Aug-09 07:10 23.9
2020-Aug-09 07:05 23.9
2020-Aug-09 07:01 23.9
2020-Aug-09 06:55 23.9
2020-Aug-09 06:50 23.9
2020-Aug-09 06:46 23.9
2020-Aug-09 06:41 23.9
2020-Aug-09 06:35 277 23.9
2020-Aug-09 06:31 23.9
2020-Aug-09 06:25 23.9
2020-Aug-09 06:20 23.9
2020-Aug-09 06:16 23.9
2020-Aug-09 06:11 277 23.9
2020-Aug-09 06:06 23.9
2020-Aug-09 06:01 23.9
2020-Aug-09 05:55 23.9
2020-Aug-09 05:50 23.9
2020-Aug-09 05:46 23.9
2020-Aug-09 05:40 23.9
2020-Aug-09 05:35 273 23.9
2020-Aug-09 05:31 24.4
2020-Aug-09 05:25 272 24.4
2020-Aug-09 05:21 23.9
2020-Aug-09 05:15 23.9
2020-Aug-09 05:10 23.9
2020-Aug-09 05:06 23.9
2020-Aug-09 05:01 23.9
2020-Aug-09 04:56 23.9
2020-Aug-09 04:50 23.9
2020-Aug-09 04:47 23.9
2020-Aug-09 04:40 23.9
2020-Aug-09 04:35 23.9
2020-Aug-09 04:31 23.9
2020-Aug-09 04:25 23.9
2020-Aug-09 04:20 23.9
2020-Aug-09 04:16 23.9
2020-Aug-09 04:10 23.9
2020-Aug-09 04:05 272 23.9
2020-Aug-09 04:01 272 0 gusting 6 23.3
2020-Aug-09 03:55 273 0 gusting 6 23.3
2020-Aug-09 03:50 265 1 gusting 3 23.3
2020-Aug-09 03:46 327 0 gusting 2 23.3
2020-Aug-09 03:40 205 0 gusting 2 23.3
2020-Aug-09 03:35 23.3
2020-Aug-09 03:31 261 1 gusting 4 23.3
2020-Aug-09 03:25 262 1 gusting 5 23.3
2020-Aug-09 03:20 041 1 gusting 9 23.9
2020-Aug-09 03:16 085 1 gusting 14 23.9
2020-Aug-09 03:10 050 6 gusting 14 24.4
2020-Aug-09 03:05 043 3 gusting 13 25.6
2020-Aug-09 03:01 069 3 gusting 13 26.7
2020-Aug-09 02:55 020 2 gusting 9 27.2
2020-Aug-09 02:50 047 27.8
2020-Aug-09 02:46 27.8
2020-Aug-09 02:40 047 27.8
2020-Aug-09 02:36 27.8
2020-Aug-09 02:31 27.8
2020-Aug-09 02:26 28.3
2020-Aug-09 02:21 28.3
2020-Aug-09 02:16 360 28.3
2020-Aug-09 02:10 28.3
2020-Aug-09 02:05 360 28.3
2020-Aug-09 02:01 360 0 gusting 1 28.3
2020-Aug-09 01:55 360 28.3
2020-Aug-09 01:50 28.3
2020-Aug-09 01:46 28.3
2020-Aug-09 01:40 360 28.3
2020-Aug-09 01:35 28.9
2020-Aug-09 01:32 28.9
2020-Aug-09 01:25 28.9
2020-Aug-09 01:20 28.9
2020-Aug-09 01:16 28.9
2020-Aug-09 01:10 28.9
2020-Aug-09 01:05 28.9
2020-Aug-09 01:00 28.9
2020-Aug-09 00:55 29.4
2020-Aug-09 00:50 29.4
2020-Aug-09 00:45 29.4
2020-Aug-09 00:40 29.4
2020-Aug-09 00:35 360 29.4
2020-Aug-09 00:31 360 30.0
2020-Aug-09 00:26 30.0
2020-Aug-09 00:21 30.0
2020-Aug-09 00:16 30.0
2020-Aug-09 00:10 30.0
2020-Aug-09 00:06 360 30.0
2020-Aug-09 00:01 360 30.0
2020-Aug-08 23:55 360 0 gusting 2 30.0
2020-Aug-08 23:50 333 0 gusting 2 30.0
2020-Aug-08 23:46 333 30.0
2020-Aug-08 23:40 333 30.0
2020-Aug-08 23:35 30.0
2020-Aug-08 23:32 332 30.0
2020-Aug-08 23:25 332 29.4
2020-Aug-08 23:20 29.4
2020-Aug-08 23:16 29.4
2020-Aug-08 23:10 332 29.4
2020-Aug-08 23:06 29.4
2020-Aug-08 23:02 29.4
2020-Aug-08 22:55 29.4
2020-Aug-08 22:50 332 28.9
2020-Aug-08 22:46 28.9
2020-Aug-08 22:40 332 28.9
2020-Aug-08 22:35 332 0 gusting 3 28.9
2020-Aug-08 22:31 284 0 gusting 3 28.9
2020-Aug-08 22:25 284 28.9
2020-Aug-08 22:20 294 0 gusting 2 28.9
2020-Aug-08 22:17 352 28.9
2020-Aug-08 22:10 014 0 gusting 5 28.9
2020-Aug-08 22:05 017 0 gusting 5 28.9
2020-Aug-08 22:01 352 1 gusting 3 28.9
2020-Aug-08 21:55 344 0 gusting 2 28.9
2020-Aug-08 21:50 277 0 gusting 1 28.9
2020-Aug-08 21:47 28.9
2020-Aug-08 21:40 277 0 gusting 3 28.9
2020-Aug-08 21:35 28.9
2020-Aug-08 21:31 278 0 gusting 6 29.4
2020-Aug-08 21:25 29.4
2020-Aug-08 21:20 242 0 gusting 6 30.0
2020-Aug-08 21:17 233 2 gusting 6 30.0
2020-Aug-08 21:10 221 0 gusting 8 30.6
2020-Aug-08 21:05 213 4 gusting 8 31.1
2020-Aug-08 21:02 210 2 gusting 8 32.2
2020-Aug-08 20:55 221 2 gusting 8 32.8
2020-Aug-08 20:50 194 1 gusting 4 33.3
2020-Aug-08 20:46 240 0 gusting 3 33.3
2020-Aug-08 20:40 264 0 gusting 3 33.9
2020-Aug-08 20:35 218 0 gusting 2 34.4
2020-Aug-08 20:30 34.4
2020-Aug-08 20:25 107 34.4
2020-Aug-08 20:20 34.4
2020-Aug-08 20:16 096 35.0
2020-Aug-08 20:10 127 35.0
2020-Aug-08 20:05 128 35.0
2020-Aug-08 20:01 128 0 gusting 1 35.6
2020-Aug-08 19:55 35.6
2020-Aug-08 19:50 35.0
2020-Aug-08 19:46 321 0 gusting 3 35.6
2020-Aug-08 19:40 131 1 gusting 3 35.6
2020-Aug-08 19:35 35.0
2020-Aug-08 19:31 35.0
2020-Aug-08 19:25 053 1 gusting 3 35.6
2020-Aug-08 19:20 047 1 gusting 5 35.6
2020-Aug-08 19:16 040 1 gusting 5 36.1
2020-Aug-08 19:10 061 1 gusting 5 36.1
2020-Aug-08 19:06 044 0 gusting 5 36.1
2020-Aug-08 19:01 263 1 gusting 4 35.6
2020-Aug-08 18:55 005 2 gusting 7 35.6
2020-Aug-08 18:50 352 2 gusting 7 36.1
2020-Aug-08 18:46 005 2 gusting 7 36.1
2020-Aug-08 18:40 009 2 gusting 7 35.6
2020-Aug-08 18:35 010 2 gusting 6 35.6
2020-Aug-08 18:30 059 1 gusting 6 35.6
2020-Aug-08 18:25 005 1 gusting 5 35.6
2020-Aug-08 18:20 360 0 gusting 5 35.6
2020-Aug-08 18:16 35.6
2020-Aug-08 18:11 055 1 gusting 3 35.0
2020-Aug-08 18:05 044 1 gusting 3 35.0
2020-Aug-08 18:02 147 0 gusting 3 35.0
2020-Aug-08 17:55 049 0 gusting 3 35.0
2020-Aug-08 17:50 094 0 gusting 4 34.4
2020-Aug-08 17:46 046 1 gusting 4 34.4
2020-Aug-08 17:40 045 1 gusting 3 35.0
2020-Aug-08 17:35 306 1 gusting 5 34.4
2020-Aug-08 17:32 346 0 gusting 5 34.4
2020-Aug-08 17:25 279 1 gusting 5 34.4
2020-Aug-08 17:20 318 1 gusting 6 34.4
2020-Aug-08 17:16 276 1 gusting 6 34.4
2020-Aug-08 17:10 029 1 gusting 4 34.4
2020-Aug-08 17:05 057 0 gusting 4 34.4
2020-Aug-08 17:01 091 0 gusting 4 34.4
2020-Aug-08 16:55 040 0 gusting 4 34.4
2020-Aug-08 16:50 169 0 gusting 4 33.9
2020-Aug-08 16:45 057 33.9
2020-Aug-08 16:40 133 0 gusting 3 33.3
2020-Aug-08 16:35 286 0 gusting 5 33.3
2020-Aug-08 16:31 346 2 gusting 5 33.3
2020-Aug-08 16:25 352 1 gusting 3 32.8
2020-Aug-08 16:20 005 1 gusting 3 32.8
2020-Aug-08 16:16 019 32.8
2020-Aug-08 16:11 044 1 gusting 3 32.8
2020-Aug-08 16:05 024 0 gusting 3 32.8
2020-Aug-08 16:01 083 0 gusting 3 32.2
2020-Aug-08 15:55 109 32.2
2020-Aug-08 15:50 030 0 gusting 2 32.2
2020-Aug-08 15:46 024 0 gusting 2 32.2
2020-Aug-08 15:41 012 0 gusting 4 32.2
2020-Aug-08 15:35 31.7
2020-Aug-08 15:31 344 1 gusting 3 31.7
2020-Aug-08 15:25 352 0 gusting 3 31.7
2020-Aug-08 15:20 052 1 gusting 3 31.1
2020-Aug-08 15:16 31.1
2020-Aug-08 15:11 063 0 gusting 3 31.1
2020-Aug-08 15:05 081 31.1
2020-Aug-08 15:01 036 0 gusting 3 31.1
2020-Aug-08 14:55 031 1 gusting 3 31.1
2020-Aug-08 14:50 053 1 gusting 4 30.6
2020-Aug-08 14:46 044 0 gusting 4 30.6
2020-Aug-08 14:40 028 0 gusting 3 30.6
2020-Aug-08 14:35 013 1 gusting 3 30.0
2020-Aug-08 14:31 044 30.0
2020-Aug-08 14:25 044 0 gusting 2 30.0
2020-Aug-08 14:20 047 29.4
2020-Aug-08 14:16 059 0 gusting 2 29.4
2020-Aug-08 14:10 28.9
2020-Aug-08 14:05 049 0 gusting 2 28.9
2020-Aug-08 14:01 076 28.3
2020-Aug-08 13:55 28.3
2020-Aug-08 13:50 076 28.3
2020-Aug-08 13:46 27.8
2020-Aug-08 13:40 27.8
2020-Aug-08 13:35 073 27.8
2020-Aug-08 13:31 27.8
2020-Aug-08 13:25 073 27.2
2020-Aug-08 13:20 073 27.2
2020-Aug-08 13:16 073 27.2
2020-Aug-08 13:10 26.7
2020-Aug-08 13:05 073 26.7
2020-Aug-08 13:01 113 26.7
2020-Aug-08 12:55 26.1
2020-Aug-08 12:50 26.1
2020-Aug-08 12:46 118 26.1
2020-Aug-08 12:40 25.6
2020-Aug-08 12:36 25.6
2020-Aug-08 12:31 25.6
2020-Aug-08 12:25 25.0
2020-Aug-08 12:20 25.0
2020-Aug-08 12:16 25.0
2020-Aug-08 12:10 118 24.4
2020-Aug-08 12:05 118 24.4
2020-Aug-08 12:01 23.9
2020-Aug-08 11:55 23.9
2020-Aug-08 11:50 118 23.9
2020-Aug-08 11:46 23.9
2020-Aug-08 11:41 23.9
2020-Aug-08 11:35 23.9
2020-Aug-08 11:31 23.9
2020-Aug-08 11:25 23.9
2020-Aug-08 11:20 23.9
2020-Aug-08 11:16 23.9
2020-Aug-08 11:10 23.9
2020-Aug-08 11:05 23.9
2020-Aug-08 11:01 23.9
2020-Aug-08 10:55 23.9
2020-Aug-08 10:50 23.9
2020-Aug-08 10:46 23.9
2020-Aug-08 10:40 23.9
2020-Aug-08 10:35 23.9
2020-Aug-08 10:31 23.9
2020-Aug-08 10:25 23.9
2020-Aug-08 10:20 23.9
2020-Aug-08 10:15 23.3
2020-Aug-08 10:10 23.3
2020-Aug-08 10:05 23.3
2020-Aug-08 10:01 23.3
2020-Aug-08 09:55 23.9
2020-Aug-08 09:50 23.3
2020-Aug-08 09:46 23.9
2020-Aug-08 09:40 23.3
2020-Aug-08 09:35 23.9
2020-Aug-08 09:32 23.9
2020-Aug-08 09:25 118 23.9
2020-Aug-08 09:20 118 23.9
2020-Aug-08 09:16 23.9
2020-Aug-08 09:10 23.9
2020-Aug-08 09:05 23.9
2020-Aug-08 09:01 23.9
2020-Aug-08 08:55 23.9
2020-Aug-08 08:50 24.4
2020-Aug-08 08:45 24.4
2020-Aug-08 08:40 24.4
2020-Aug-08 08:35 24.4
2020-Aug-08 08:31 24.4
2020-Aug-08 08:25 24.4
2020-Aug-08 08:20 24.4
2020-Aug-08 08:16 24.4
2020-Aug-08 08:10 24.4
2020-Aug-08 08:05 24.4
2020-Aug-08 08:01 25.0
2020-Aug-08 07:55 24.4
2020-Aug-08 07:50 25.0
2020-Aug-08 07:46 25.0
2020-Aug-08 07:40 25.0
2020-Aug-08 07:35 25.0
2020-Aug-08 07:30 25.0
2020-Aug-08 07:26 25.0
2020-Aug-08 07:20 25.0
2020-Aug-08 07:15 25.0
2020-Aug-08 07:10 25.0
2020-Aug-08 07:05 25.0
2020-Aug-08 07:01 25.0
2020-Aug-08 06:55 25.0
2020-Aug-08 06:50 25.0
2020-Aug-08 06:46 25.0
2020-Aug-08 06:40 25.0
2020-Aug-08 06:35 25.0
2020-Aug-08 06:31 25.0
2020-Aug-08 06:25 25.0
2020-Aug-08 06:21 25.0
2020-Aug-08 06:15 25.0
2020-Aug-08 06:10 25.0
2020-Aug-08 06:06 25.0
2020-Aug-08 06:01 25.0
2020-Aug-08 05:55 25.0
2020-Aug-08 05:50 25.0
2020-Aug-08 05:46 25.0
2020-Aug-08 05:40 118 25.6
2020-Aug-08 05:35 118 25.6
2020-Aug-08 05:31 118 25.6
2020-Aug-08 05:25 25.6
2020-Aug-08 05:20 25.6
2020-Aug-08 05:17 25.6
2020-Aug-08 05:10 25.6
2020-Aug-08 05:06 25.6
2020-Aug-08 05:01 25.6
2020-Aug-08 04:55 25.6
2020-Aug-08 04:50 25.6
2020-Aug-08 04:46 25.6
2020-Aug-08 04:40 26.1
2020-Aug-08 04:35 26.1
2020-Aug-08 04:30 26.1
2020-Aug-08 04:25 26.1
2020-Aug-08 04:20 26.1
2020-Aug-08 04:17 26.1
2020-Aug-08 04:10 26.1
2020-Aug-08 04:05 26.1
2020-Aug-08 04:02 26.1
2020-Aug-08 03:55 26.1
2020-Aug-08 03:50 26.1
2020-Aug-08 03:47 26.7
2020-Aug-08 03:40 26.7
2020-Aug-08 03:35 26.7
2020-Aug-08 03:31 26.7
2020-Aug-08 03:26 118 26.7
2020-Aug-08 03:20 26.7
2020-Aug-08 03:15 26.7
2020-Aug-08 03:10 26.7
2020-Aug-08 03:05 013 26.7
2020-Aug-08 03:01 043 0 gusting 3 27.2
2020-Aug-08 02:55 27.2
2020-Aug-08 02:50 046 27.2
2020-Aug-08 02:46 046 27.2
2020-Aug-08 02:40 27.2
2020-Aug-08 02:35 27.2
2020-Aug-08 02:30 053 27.2
2020-Aug-08 02:25 27.2
2020-Aug-08 02:20 048 27.2
2020-Aug-08 02:17 037 27.2
2020-Aug-08 02:10 090 27.2
2020-Aug-08 02:05 119 27.2
2020-Aug-08 02:01 126 0 gusting 2 27.2
2020-Aug-08 01:56 27.2
2020-Aug-08 01:50 039 27.2
2020-Aug-08 01:46 27.2
2020-Aug-08 01:40 039 27.8
2020-Aug-08 01:36 27.8
2020-Aug-08 01:31 039 27.8
2020-Aug-08 01:25 27.8
2020-Aug-08 01:20 27.8
2020-Aug-08 01:16 039 27.8
2020-Aug-08 01:11 27.8
2020-Aug-08 01:05 28.3
2020-Aug-08 01:00 28.3
2020-Aug-08 00:55 049 28.3
2020-Aug-08 00:50 038 0 gusting 2 28.3
2020-Aug-08 00:46 28.9
2020-Aug-08 00:40 28.9
2020-Aug-08 00:35 28.9
2020-Aug-08 00:31 28.9
2020-Aug-08 00:25 28.9
2020-Aug-08 00:21 28.9
2020-Aug-08 00:16 28.9
2020-Aug-08 00:10 029 0 gusting 3 28.9
2020-Aug-08 00:05 348 0 gusting 3 28.9
2020-Aug-08 00:01 058 0 gusting 2 28.9
2020-Aug-07 23:55 28.9
2020-Aug-07 23:50 28.9
2020-Aug-07 23:46 28.9
2020-Aug-07 23:41 082 28.9
2020-Aug-07 23:35 084 28.9
2020-Aug-07 23:31 084 29.4
2020-Aug-07 23:25 084 29.4
2020-Aug-07 23:21 29.4
2020-Aug-07 23:16 066 29.4
2020-Aug-07 23:10 29.4
2020-Aug-07 23:05 352 0 gusting 3 29.4
2020-Aug-07 23:02 035 0 gusting 3 29.4
2020-Aug-07 22:55 022 0 gusting 2 28.9
2020-Aug-07 22:50 28.9
2020-Aug-07 22:46 28.9
2020-Aug-07 22:40 28.9
2020-Aug-07 22:35 29.4
2020-Aug-07 22:31 067 29.4
2020-Aug-07 22:25 29.4
2020-Aug-07 22:20 29.4
2020-Aug-07 22:16 30.0
2020-Aug-07 22:10 038 1 gusting 3 30.0
2020-Aug-07 22:05 052 30.0
2020-Aug-07 22:01 052 0 gusting 2 30.6
2020-Aug-07 21:55 30.6
2020-Aug-07 21:50 31.1
2020-Aug-07 21:46 059 0 gusting 5 31.7
2020-Aug-07 21:41 042 0 gusting 4 31.7
2020-Aug-07 21:35 024 1 gusting 3 31.7
2020-Aug-07 21:32 005 0 gusting 3 32.2
2020-Aug-07 21:25 027 0 gusting 4 32.2
2020-Aug-07 21:20 005 1 gusting 4 32.2
2020-Aug-07 21:15 039 0 gusting 6 32.2
2020-Aug-07 21:10 047 1 gusting 6 32.2
2020-Aug-07 21:05 062 0 gusting 5 31.7
2020-Aug-07 21:02 044 1 gusting 4 31.7
2020-Aug-07 20:56 016 1 gusting 6 31.7
2020-Aug-07 20:50 049 2 gusting 6 32.2
2020-Aug-07 20:46 340 1 gusting 4 32.2
2020-Aug-07 20:40 320 0 gusting 7 32.2
2020-Aug-07 20:35 350 2 gusting 7 32.2
2020-Aug-07 20:30 011 1 gusting 5 32.2
2020-Aug-07 20:25 037 2 gusting 7 32.2
2020-Aug-07 20:20 048 2 gusting 8 32.2
2020-Aug-07 20:16 310 2 gusting 8 32.2
2020-Aug-07 20:10 026 2 gusting 6 32.8
2020-Aug-07 20:05 271 2 gusting 8 32.2
2020-Aug-07 20:01 042 2 gusting 10 32.2